Weather History for Syracuse, NY

Change the Weather History Date:

Sunday, October 23, 2011

  Actual Average Record
Temperature  
Mean Temperature 50 °F 48 °F  
Max Temperature 59 °F 57 °F 77 °F (1991)
Min Temperature 41 °F 39 °F 27 °F (1969)
Degree Days  
Heating Degree Days 15 17  
Month to date heating degree days 202 307  
Since 1 July heating degree days 272 474  
Cooling Degree Days 0 0  
Month to date cooling degree days 0 0  
Year to date cooling degree days 911 565  
Moisture  
Dew Point 40 °F    
Average Humidity 67    
Maximum Humidity 86    
Minimum Humidity 47    
Precipitation  
Precipitation 0.00 in 0.11 in 2.54 in (1937)
Month to date precipitation 2.04 2.55  
Year to date precipitation 41.04 30.83  
Snow  
Snow 0.00 in 0.00 in 1.20 in (1997)
Month to date snowfall 0.0 0.1  
Since 1 July snowfall 0.0 0.1  
Since 1 September snowfall 0.0 0.1  
Snow Depth 0.00 in    
Sea Level Pressure  
Sea Level Pressure 30.08 in    
Wind  
Wind Speed 4 mph (SW)    
Max Wind Speed 12 mph    
Max Gust Speed 15 mph    
Visibility 10 miles    
Events      
T = Trace of Precipitation, MM = Missing Value Source: NWS Daily Summary

Daily Weather History Graph

Daily Weather History Graph

Search for Another Location

Airport:

Trip Planner

Search our weather history database for the weather conditions in past years. The results will help you decide how hot, cold, wet, or windy it might be!

Date:

Astronomy

Oct. 23, 2011 Rise Set
Actual Time 7:27 AM EDT 6:09 PM EDT
Civil Twilight 6:58 AM EDT 6:38 PM EDT
Nautical Twilight 6:25 AM EDT 7:11 PM EDT
Astronomical Twilight 5:52 AM EDT 7:44 PM EDT
Moon 3:26 AM EDT 4:03 PM EDT
Length of Visible Light 11h 40m
Length of Day
10h 42m
Waning Crescent, 14% of the Moon is Illuminated
Oct 23
Waning Crescent
Oct 26
New
Nov 2
First Quarter
Nov 10
Full
Nov 18
Last Quarter

Hourly Weather History & Observations

Time (EDT) Temp. Windchill Dew Point Humidity Pressure Visibility Wind Dir Wind Speed Gust Speed Precip Events Conditions
12:54 AM 46.9 °F - 43.0 °F 86% 30.09 in 10.0 mi Calm Calm - N/A   Overcast
1:54 AM 48.0 °F - 43.0 °F 83% 30.09 in 10.0 mi Calm Calm - N/A   Overcast
2:54 AM 46.9 °F - 43.0 °F 86% 30.08 in 10.0 mi SSE 3.5 mph - N/A   Overcast
3:54 AM 46.9 °F - 43.0 °F 86% 30.07 in 10.0 mi Calm Calm - N/A   Overcast
4:54 AM 46.9 °F - 43.0 °F 86% 30.07 in 10.0 mi Calm Calm - N/A   Overcast
5:54 AM 48.0 °F - 43.0 °F 83% 30.08 in 10.0 mi Calm Calm - N/A   Overcast
6:54 AM 46.9 °F - 42.1 °F 83% 30.07 in 10.0 mi Calm Calm - N/A   Overcast
7:54 AM 46.9 °F - 41.0 °F 80% 30.09 in 10.0 mi WSW 5.8 mph - N/A   Overcast
8:54 AM 48.0 °F - 42.1 °F 80% 30.12 in 10.0 mi WSW 8.1 mph - N/A   Overcast
9:54 AM 50.0 °F - 41.0 °F 71% 30.12 in 10.0 mi West 5.8 mph - N/A   Overcast
10:54 AM 53.1 °F - 39.9 °F 61% 30.12 in 10.0 mi WNW 5.8 mph - N/A   Mostly Cloudy
11:54 AM 54.0 °F - 37.0 °F 53% 30.11 in 10.0 mi WSW 4.6 mph - N/A   Mostly Cloudy
12:54 PM 55.0 °F - 37.9 °F 53% 30.09 in 10.0 mi Calm Calm - N/A   Mostly Cloudy
1:54 PM 57.9 °F - 37.0 °F 46% 30.07 in 10.0 mi West 6.9 mph - N/A   Mostly Cloudy
2:54 PM 57.9 °F - 37.9 °F 47% 30.06 in 10.0 mi West 5.8 mph - N/A   Mostly Cloudy
3:54 PM 57.9 °F - 37.0 °F 46% 30.06 in 10.0 mi WNW 4.6 mph - N/A   Mostly Cloudy
4:54 PM 57.0 °F - 37.9 °F 49% 30.05 in 10.0 mi WNW 5.8 mph - N/A   Mostly Cloudy
5:54 PM 55.0 °F - 36.0 °F 49% 30.05 in 10.0 mi Calm Calm - N/A   Scattered Clouds
6:54 PM 48.0 °F - 39.0 °F 71% 30.07 in 10.0 mi Calm Calm - N/A   Scattered Clouds
7:54 PM 48.0 °F - 37.9 °F 68% 30.07 in 10.0 mi ESE 4.6 mph - N/A   Scattered Clouds
8:54 PM 46.0 °F 43.9 °F 37.9 °F 73% 30.06 in 10.0 mi SE 4.6 mph - N/A   Scattered Clouds
9:54 PM 44.1 °F 42.5 °F 37.0 °F 76% 30.06 in 10.0 mi ESE 3.5 mph - N/A   Scattered Clouds
10:54 PM 43.0 °F 39.5 °F 37.0 °F 80% 30.07 in 10.0 mi SSE 5.8 mph - N/A   Partly Cloudy
11:54 PM 42.1 °F 37.7 °F 36.0 °F 79% 30.06 in 10.0 mi SE 6.9 mph - N/A   Partly Cloudy